Time,TemperatureF,DewpointF,PressureIn,WindDirection,WindDirectionDegrees,WindSpeedMPH,WindSpeedGustMPH,Humidity,HourlyPrecipIn,Conditions,Clouds,dailyrainin,SoftwareType,DateUTC
2013-08-21 00:14:00,83.0,78.0,29.99,ENE,69,8.0,12.0,86,0.00,,,0.09,,2013-08-21 04:14:00,
2013-08-21 00:24:00,82.0,77.0,30.00,NE,55,4.0,10.0,86,0.00,,,0.09,,2013-08-21 04:24:00,
2013-08-21 00:54:00,82.0,77.0,30.00,East,79,6.0,10.0,85,0.00,,,0.09,,2013-08-21 04:54:00,
2013-08-21 01:23:00,82.0,77.0,30.01,East,80,5.0,8.0,86,0.00,,,0.09,,2013-08-21 05:23:00,
2013-08-21 01:52:00,82.0,78.0,30.00,ENE,67,6.0,11.0,88,0.00,,,0.09,,2013-08-21 05:52:00,
2013-08-21 02:12:00,82.0,78.0,30.00,ENE,60,6.0,10.0,88,0.00,,,0.09,,2013-08-21 06:12:00,
2013-08-21 02:22:00,82.0,78.0,30.00,East,96,6.0,11.0,88,0.00,,,0.09,,2013-08-21 06:22:00,
2013-08-21 02:52:00,82.0,78.0,29.98,ENE,60,4.0,9.0,88,0.00,,,0.09,,2013-08-21 06:52:00,
2013-08-21 03:22:00,82.0,78.0,29.97,NE,55,6.0,10.0,88,0.00,,,0.09,,2013-08-21 07:22:00,
2013-08-21 03:53:00,82.0,78.0,29.97,ESE,102,5.0,7.0,88,0.00,,,0.09,,2013-08-21 07:53:00,
2013-08-21 04:22:00,81.0,76.0,29.97,SE,134,8.0,13.0,84,0.00,,,0.09,,2013-08-21 08:22:00,
2013-08-21 04:53:00,81.0,76.0,29.97,ENE,67,4.0,10.0,85,0.00,,,0.09,,2013-08-21 08:53:00,
2013-08-21 05:22:00,81.0,76.0,29.97,ENE,75,3.0,6.0,85,0.00,,,0.09,,2013-08-21 09:22:00,
2013-08-21 05:54:00,81.0,77.0,29.97,East,100,2.0,8.0,87,0.00,,,0.09,,2013-08-21 09:54:00,
2013-08-21 06:23:00,81.0,77.0,29.97,East,97,2.0,5.0,88,0.00,,,0.09,,2013-08-21 10:23:00,
2013-08-21 06:53:00,81.0,77.0,29.98,ESE,109,2.0,4.0,89,0.00,,,0.09,,2013-08-21 10:53:00,
2013-08-21 07:22:00,80.0,76.0,29.98,NE,39,3.0,4.0,89,0.00,,,0.09,,2013-08-21 11:22:00,
2013-08-21 07:53:00,81.0,78.0,29.99,ENE,67,4.0,7.0,90,0.00,,,0.09,,2013-08-21 11:53:00,
2013-08-21 08:12:00,81.0,78.0,29.99,East,95,5.0,8.0,90,0.00,,,0.09,,2013-08-21 12:12:00,
2013-08-21 08:22:00,81.0,78.0,30.00,East,88,2.0,4.0,90,0.00,,,0.09,,2013-08-21 12:22:00,
2013-08-21 08:52:00,82.0,78.0,30.01,North,5,3.0,8.0,89,0.00,,,0.09,,2013-08-21 12:52:00,
2013-08-21 09:21:00,83.0,79.0,30.01,NE,38,6.0,8.0,87,0.00,,,0.09,,2013-08-21 13:21:00,
2013-08-21 09:52:00,85.0,80.0,30.01,NE,54,6.0,11.0,84,0.00,,,0.09,,2013-08-21 13:52:00,
2013-08-21 10:21:00,87.0,80.0,30.01,East,92,7.0,10.0,80,0.00,,,0.09,,2013-08-21 14:21:00,
2013-08-21 10:52:00,88.0,80.0,30.02,East,96,8.0,13.0,77,0.00,,,0.09,,2013-08-21 14:52:00,
2013-08-21 11:22:00,89.0,79.0,30.02,ESE,113,8.0,12.0,73,0.00,,,0.09,,2013-08-21 15:22:00,
2013-08-21 11:55:00,91.0,80.0,30.02,East,88,7.0,12.0,71,0.00,,,0.09,,2013-08-21 15:55:00,
2013-08-21 12:24:00,90.0,80.0,30.02,ESE,104,7.0,15.0,72,0.00,,,0.09,,2013-08-21 16:24:00,
2013-08-21 12:53:00,91.0,80.0,30.01,ESE,112,9.0,15.0,71,0.00,,,0.09,,2013-08-21 16:53:00,
2013-08-21 13:23:00,91.0,80.0,30.01,East,100,8.0,14.0,71,0.00,,,0.04,,2013-08-21 17:23:00,
2013-08-21 13:53:00,92.0,81.0,30.00,SSE,158,9.0,17.0,70,0.00,,,0.04,,2013-08-21 17:53:00,
2013-08-21 14:12:00,92.0,82.0,30.00,East,84,8.0,16.0,72,0.00,,,0.04,,2013-08-21 18:12:00,
2013-08-21 14:22:00,92.0,81.0,29.99,East,94,9.0,16.0,70,0.00,,,0.01,,2013-08-21 18:22:00,
2013-08-21 14:52:00,91.0,80.0,29.98,East,94,9.0,19.0,71,0.00,,,0.01,,2013-08-21 18:52:00,
2013-08-21 15:22:00,92.0,81.0,29.98,ESE,122,10.0,17.0,70,0.00,,,0.00,,2013-08-21 19:22:00,
2013-08-21 15:52:00,91.0,80.0,29.98,East,86,9.0,17.0,70,0.00,,,0.00,,2013-08-21 19:52:00,
2013-08-21 16:22:00,91.0,80.0,29.96,East,81,9.0,18.0,71,0.00,,,0.00,,2013-08-21 20:22:00,
2013-08-21 16:52:00,91.0,81.0,29.95,SE,133,8.0,15.0,72,0.00,,,0.00,,2013-08-21 20:52:00,
2013-08-21 17:22:00,90.0,81.0,29.94,SE,129,10.0,16.0,74,0.00,,,0.00,,2013-08-21 21:22:00,
2013-08-21 17:34:00,90.0,81.0,29.94,SE,129,10.0,16.0,74,0.00,,,0.00,,2013-08-21 21:34:00,
2013-08-21 17:55:00,90.0,81.0,29.93,ESE,118,9.0,16.0,75,0.00,,,0.00,,2013-08-21 21:55:00,
2013-08-21 18:24:00,89.0,81.0,29.93,ESE,116,12.0,21.0,78,0.00,,,0.00,,2013-08-21 22:24:00,
2013-08-21 18:53:00,85.0,79.0,29.93,SE,142,9.0,16.0,83,0.02,,,0.02,,2013-08-21 22:53:00,
2013-08-21 19:13:00,84.0,79.0,29.93,ESE,105,13.0,18.0,84,0.02,,,0.02,,2013-08-21 23:13:00,
2013-08-21 19:22:00,85.0,80.0,29.94,East,83,9.0,15.0,85,0.02,,,0.02,,2013-08-21 23:22:00,
2013-08-21 19:53:00,84.0,79.0,29.95,East,101,8.0,19.0,84,0.00,,,0.02,,2013-08-21 23:53:00,
2013-08-21 20:02:00,84.0,79.0,29.95,East,101,8.0,19.0,84,0.00,,,0.02,,2013-08-22 00:02:00,
2013-08-21 20:22:00,84.0,79.0,29.97,ESE,119,10.0,19.0,84,0.00,,,0.02,,2013-08-22 00:22:00,
2013-08-21 20:42:00,84.0,78.0,29.97,East,98,12.0,21.0,83,0.00,,,0.02,,2013-08-22 00:42:00,
2013-08-21 20:52:00,84.0,78.0,29.98,SE,126,9.0,20.0,83,0.00,,,0.02,,2013-08-22 00:52:00,
2013-08-21 21:11:00,84.0,78.0,29.98,East,83,13.0,20.0,83,0.00,,,0.02,,2013-08-22 01:11:00,
2013-08-21 21:22:00,84.0,79.0,29.98,East,90,9.0,15.0,84,0.00,,,0.02,,2013-08-22 01:22:00,
2013-08-21 21:52:00,84.0,79.0,29.98,SE,125,8.0,18.0,84,0.00,,,0.02,,2013-08-22 01:52:00,
2013-08-21 22:03:00,84.0,79.0,29.98,SE,125,8.0,18.0,84,0.00,,,0.02,,2013-08-22 02:03:00,
2013-08-21 22:22:00,84.0,79.0,29.98,ESE,123,10.0,17.0,84,0.00,,,0.02,,2013-08-22 02:22:00,
2013-08-21 23:22:00,79.0,76.0,30.00,East,99,9.0,17.0,90,0.18,,,0.20,,2013-08-22 03:22:00,
2013-08-21 23:54:00,80.0,77.0,30.01,East,82,8.0,14.0,92,0.07,,,0.20,,2013-08-22 03:54:00,